Location: Blangy-Tronville
(49.8790°N, 2.4226°E)
Time: 23:32:00
(UTC+00:00)

PSLV R/B - Pass Details

Date: 18 November 2025
Orbit: 561 x 590 km, 98.0° (Epoch: 05 December)

Event Time Altitude Azimuth Distance (km) Brightness Sun altitude
Rises 17:50:50 0° 153° (SSE) 2,758 6.7 -17.1°
Reaches altitude 10° 17:53:00 10° 150° (SSE) 1,861 5.8 -17.5°
Maximum altitude 17:56:56 57° 72° (ENE) 671 3.4 -18.1°
Drops below altitude 10° 18:00:54 10° 353° (N) 1,866 6.0 -18.7°
Sets 18:03:04 0° 350° (N) 2,766 6.9 -19.1°
